Hourly Data Report for October 04, 2017

All times are specified in Local Standard Time (LST). Add 1 hour to adjust for Daylight Saving Time where and when it is observed.

SAINT JOHN A
NEW BRUNSWICK

45°18'58.000" N
65°53'24.000" W
108.80 m
8104901
71609
YSJ

Download Data

Hourly Data (October 2017)
Hourly Data Report for October 4, 2017
Temp Definition
°C
Dew Point Temp Definition
°C
Rel Hum Definition
%
Wind Dir Definition
10's deg

Wind Spd Definition
km/h
Visibility Definition
km
Stn Press Definition
kPa
Hmdx Definition


Wind Chill Definition


Weather Definition


TIME
00:00 Legend Double Dagger 9.6 8.0 90 22 12 24.1 101.64     LegendNANA
01:00 Legend Double Dagger 10.2 8.8 91 22 19 24.1 101.57     LegendNANA
02:00 Legend Double Dagger 10.5 9.3 92 23 15 24.1 101.51     Mostly Cloudy
03:00 Legend Double Dagger 10.5 9.5 93 23 14 24.1 101.46     LegendNANA
04:00 Legend Double Dagger 10.7 9.6 93 22 16 24.1 101.40     LegendNANA
05:00 Legend Double Dagger 10.5 9.7 95 22 18 19.3 101.32     Mostly Cloudy
06:00 Legend Double Dagger 11.7 10.6 93 23 20 19.3 101.29     LegendNANA
07:00 Legend Double Dagger 11.8 10.7 93 22 21 12.9 101.22     LegendNANA
08:00 Legend Double Dagger 12.1 10.9 92 22 16 16.1 101.17     Cloudy
09:00 Legend Double Dagger 12.4 10.9 90 22 23 24.1 101.13     LegendNANA
10:00 Legend Double Dagger 14.1 11.2 82 21 27 24.1 101.08     LegendNANA
11:00 Legend Double Dagger 15.7 11.5 76 20 27 24.1 101.01     Mostly Cloudy
12:00 Legend Double Dagger 17.1 11.8 71 21 27 24.1 100.90     LegendNANA
13:00 Legend Double Dagger 15.8 11.7 76 21 24 24.1 100.80     LegendNANA
14:00 Legend Double Dagger 16.9 11.8 72 20 23 24.1 100.73     Cloudy
15:00 Legend Double Dagger 15.6 11.8 78 18 27 24.1 100.65     LegendNANA
16:00 Legend Double Dagger 14.8 11.4 80 20 34 24.1 100.58     LegendNANA
17:00 Legend Double Dagger 13.3 11.5 89 20 27 24.1 100.50     Cloudy
18:00 Legend Double Dagger 12.7 11.5 92 21 18 24.1 100.46     LegendNANA
19:00 Legend Double Dagger 12.8 11.8 94 21 22 4.8 100.40     Fog
20:00 Legend Double Dagger 12.6 11.8 95 20 23 3.2 100.33     Fog
21:00 Legend Double Dagger 12.7 11.9 95 20 32 3.2 100.26     Fog
22:00 Legend Double Dagger 12.9 12.3 96 20 26 3.2 100.19     Fog
23:00 Legend Double Dagger 13.1 12.8 98 23 21 2.4 100.11     Fog

Notes on Data Quality.

Legend

  • E = Estimated
  • M = Missing
  • NA = Not Available
  • ‡ = Partner data that is not subject to review by the National Climate Archives
Date modified: